Regional Weather Roundup
Issued by NWS

Home | Current Version | Previous Version | Graphics & Text | Print | Product List | Glossary Off
Versions: 1 2 3 4 5 6 7 8 9 10 11 12 13 14 15 16 17 18 19 20 21 22 23 24 25 26 27 28 29 30 31 32 33 34 35 36 37 38 39 40 41 42 43 44 45 46 47 48 49 50

000
ASUS43 KDMX 232308
RWRIA

WEATHER ROUNDUP FOR IOWA
NATIONAL WEATHER SERVICE DES MOINES IA
600 PM CDT SAT JUL 23 2016

NOTE: "FAIR" INDICATES FEW OR NO CLOUDS BELOW 12,000 FEET WITH NO
SIGNIFICANT WEATHER AND/OR OBSTRUCTIONS TO VISIBILITY.

* - THESE STATIONS ARE NOT NWS STATIONS...THUS NOT UNDER NWS
QUALITY CONTROL.  THEY ALSO DO NOT REPORT WEATHER SUCH
AS PRECIPITATION OR FOG.

IAZ001>003-012>014-020>022-031>034-043>046-240000-
   NORTHWEST IOWA

CITY           SKY/WX    TMP DP  RH WIND       PRES   REMARKS
CARROLL *      SUNNY     88  79  74 S12G17    29.80F HX 102
CHEROKEE *     CLOUDY    85  77  76 S10       29.77S HX  96
DENISON *      SUNNY     88  77  70 S14       29.77F HX 100
LE MARS *      CLOUDY    90  77  66 S15       29.76S HX 102
SHELDON *      CLOUDY    84  79  84 SE9       29.77R HX  96
SIOUX CITY     SUNNY     91  76  61 S13       29.75S HX 103
SPENCER        CLOUDY    85  76  74 S8        29.78F HX  94
STORM LAKE *   SUNNY     84  75  74 S9G17     29.80F HX  92
$$

IAZ055>058-069>071-079>083-090>094-240000-
   SOUTHWEST IOWA

CITY           SKY/WX    TMP DP  RH WIND       PRES   REMARKS
ATLANTIC *     SUNNY     90  77  66 S14G21    29.81S HX 102
CLARINDA *       N/A     88  79  74 MISG      29.84S HX 102
COUNCIL BLFS * SUNNY     90  77  66 S14       29.79F HX 102
CRESTON *      CLOUDY    88  77  70 S15G22    29.87S HX 100
HARLAN  *      SUNNY     88  79  74 S14       29.83F HX 102
LAMONI         CLOUDY    86  79  79 S9        29.86S HX  99
RED OAK *      PTSUNNY   90  79  70 S14G20    29.81S HX 105
SHENANDOAH *   CLOUDY    90  81  74 S15       29.80F HX 108
$$

IAZ047>049-059>061-072>074-084-240000-
   CENTRAL IOWA

CITY           SKY/WX    TMP DP  RH WIND       PRES   REMARKS
AMES           CLOUDY    89  81  77 S10       29.81F HX 108
ANKENY *         N/A    N/A N/A N/A MISG        N/A
BOONE *        SUNNY     90  81  74 S8G15     29.82S HX 108
CHARITON *       N/A    N/A N/A N/A MISG        N/A
DES MOINES     MOSUNNY   92  77  61 S10       29.81F HX 105
GRINNELL*      CLOUDY    89  79  71 SE8       29.86S HX 105
KNOXVILLE *    CLOUDY    90  79  70 S12G18    29.83F HX 105
MARSHALLTOWN   CLOUDY    87  83  87 SE10      29.83F HX 108
NEWTON *       CLOUDY    90  82  79 S8G15     29.83F HX 111
PELLA *        CLOUDY    91  78  66 S9        29.85F HX 105
PERRY *          N/A     91  81  73 S9G16     29.82S HX 110
$$

IAZ004>006-015-016-023>025-035-036-240000-
   NORTH CENTRAL IOWA

CITY           SKY/WX    TMP DP  RH WIND       PRES   REMARKS
ALGONA *       CLOUDY    84  79  84 S8        29.81S HX  96
ESTHERVILLE    CLOUDY    84  78  82 S13       29.79F HX  95
FORT DODGE *   CLOUDY    86  77  74 S10       29.82S HX  97
MASON CITY     MOSUNNY   77  71  82 SE8       29.84F
FOREST CITY *    N/A     77  73  88 SE9       29.83F
IOWA FALLS *     N/A     82  77  84 E9        29.85F HX  91
$$

IAZ007>011-017>019-026>030-037>042-050>054-066-240000-
   NORTHEAST IOWA

CITY           SKY/WX    TMP DP  RH WIND       PRES   REMARKS
CEDAR RAPIDS   LGT RAIN  76  75  97 E10       29.87F
CHARLES CITY * CLOUDY    75  73  94 SE14      29.86F
CLINTON *      CLOUDY    84  79  85 SE10      29.89F HX  96
DECORAH *      CLOUDY    70  70 100 E10G17    29.88F
DUBUQUE        CLOUDY    71  70  96 NE8       29.96F THUNDER
MONTICELLO *   RAIN      73  72  94 E7G14     29.90F
OELWEIN *      CLOUDY    72  70  94 E10       29.88F
WATERLOO       CLOUDY    77  74  90 SE9       29.84F
$$

IAZ064-065-067-068-078-240000-
   EAST CENTRAL IOWA

CITY           SKY/WX    TMP DP  RH WIND       PRES   REMARKS
DAVENPORT      CLOUDY    86  79  79 SE10      29.87F HX  99
IOWA CITY      CLOUDY    88  81  79 CALM      29.88R HX 106
MT. PLEASANT * CLOUDY    89  81  77 SE8       29.87S HX 108
MUSCATINE *    CLOUDY    90  81  74 S12       29.86F HX 108
QUAD CITIES    CLOUDY    88  80  77 SE10      29.87F HX 104
$$

IAZ062-063-075>077-085>089-095>099-240000-
   SOUTHEAST IOWA

CITY           SKY/WX    TMP DP  RH WIND       PRES   REMARKS
BURLINGTON     CLOUDY    89  81  77 S7        29.88F HX 108
FAIRFIELD *    CLOUDY    88  79  74 S7        29.87R HX 102
KEOKUK *       MOSUNNY   90  79  70 S5        29.88S HX 105
CENTERVILLE *    N/A     86  77  74 S7        29.89S HX  97
OTTUMWA        CLOUDY    86  76  71 S6        29.84F HX  96
WASHINGTON *   CLOUDY    88  82  84 S6        29.88R HX 108
$$

ABBREVIATIONS USED IN REMARKS
   TC - TEMPERATURES IN CELSIUS
  WCI - WIND CHILL INDEX
   HX - HEAT INDEX
  VSB - VISIBILITY
$$





USA.gov is the U.S. government's official web portal to all federal, state and local government web resources and services.